User: anonymous   Login
Location: Fort Wayne
(41.1310°N, 85.1290°W)
Time: 19:50:26
(UTC-04:00)
Language:

Cosmos 2227 Rocket - Orbit

View from above orbital plane
View from above orbital plane
View from above satellite
View from above satellite

Ground track
Ground track

The orbit data is extracted from the following two-line orbital elements,

1 22285U 92093B   15086.54873477  .00000309  00000-0  18434-3 0  9992
2 22285 071.0196 116.9540 0006321 279.4847 080.5561 14.14957800147583
Epoch (UTC): 27 March 2015 13:10:10
Eccentricity: 0.0006321
inclination: 71.0196°
perigee height: 838 km
apogee height: 847 km
right ascension of ascending node: 116.9540°
argument of perigee: 279.4847°
revolutions per day: 14.14957800
mean anomaly at epoch: 80.5561°
orbit number at epoch: 14758

The dashed part of the orbit path shows where the satellite is in the earth's shadow,  

DLR